www.pogodaiklimat.ru
ПОГОДА в Ризе

Архив погоды в Ризе (Турция)

Время
(UTC), дата
06 22.06
07 22.06
08 22.06
09 22.06
10 22.06
11 22.06
12 22.06
13 22.06
14 22.06
15 22.06
16 22.06
17 22.06
18 22.06
06 23.06
07 23.06
08 23.06
09 23.06
10 23.06
11 23.06
12 23.06
13 23.06
14 23.06
15 23.06
16 23.06
17 23.06
18 23.06
06 24.06
07 24.06
08 24.06
09 24.06
10 24.06
11 24.06
12 24.06
13 24.06
14 24.06
15 24.06
16 24.06
17 24.06
18 24.06
06 25.06
07 25.06
08 25.06
09 25.06
10 25.06
11 25.06
12 25.06
13 25.06
14 25.06
15 25.06
16 25.06
17 25.06
18 25.06
06 26.06
07 26.06
08 26.06
09 26.06
10 26.06
11 26.06
12 26.06
13 26.06
14 26.06
15 26.06
16 26.06
17 26.06
18 26.06
06 27.06
07 27.06
08 27.06
09 27.06
10 27.06
11 27.06
12 27.06
13 27.06
14 27.06
15 27.06
16 27.06
17 27.06
18 27.06
06 28.06
07 28.06
08 28.06
09 28.06
10 28.06
11 28.06
12 28.06
13 28.06
14 28.06
15 28.06
16 28.06
17 28.06
18 28.06
Ветер
(напр.,м/с)
Видим. Явления Облачность Т
(С)
Тd
(С)
f
(%)
Тe
(С)
Тes
(С)
Комфортность P
(гПа)
Po
(гПа)
Тmin
(С)
Tmax
(С)
R
(мм)
R24
(мм)
S
(см)
З 1
{5}
17 км слаб. ливневой дождь 9/5 1000 м
[Cu med, cong Ac und]
+19.3 +16.7 85 +22 +25 комфорт 1003.5 1002.5 +17.8 19 19.2
ЮВ 1 18 км слаб. ливневой дождь 9/5 600 м
[Cu med, cong Ac und]
+19.5 +18.5 94 +23 +28 комфорт 1003.6 1002.6
штиль 0 20 км в посл. час ливневой дождь 9/5 1000 м
[Cu med, cong Ac und]
+20.3 +19.2 93 +24 +29 комфорт 1004.3 1003.3
ЮЗ 1
{3}
20 км {ливн. дождь} 9/5 1080 м
[Cu med, cong Ac und]
+22.1 +17.7 76 +27 +32 душно 1004.5 1003.5
З 1 20 км 9/5 1000 м
[Cu med, cong Ac und]
+22.5 +17.6 74 +28 +33 душно 1005.3 1004.3
З 2 20 км 9/5 1000 м
[Cu med, cong Ac und]
+22.2 +16.7 71 +27 +31 душно 1005.8 1004.8
ЮЗ 1
{6}
20 км {ливн. дождь} 9/5 1200 м
[Cu med, cong Ac und]
+23.7 +17.3 67 +28 +31 душно 1005.8 1004.8 3
З 2 20 км 9/5 1000 м
[Cu med, cong Ac und]
+23.1 +17.8 72 +29 +31 очень
душно
1006.4 1005.4
Ю 1 20 км 4/4 1000 м
[Cu med, cong]
+25.7 +17.9 62 +30 +34 душно 1005.8 1004.8
В 1
{5}
20 км 6/4 1200 м
[Cu med, cong Ac und]
+24.5 +19.3 73 +30 +31 очень
душно
1005.9 1004.9
штиль 0 20 км 8/4 1000 м
[Cu med, cong Ac und]
+23.0 +19.6 81 +30 +30 очень
душно
1006.6 1005.6
ЮВ 1 20 км 8/4 1000 м
[Cu med, cong Ac und]
+23.1 +16.0 64 +28 +28 душно 1006.5 1005.5
ЮЗ 1
{5}
20 км 8/4 1200 м
[Cu med, cong Ac und]
+22.6 +15.4 64 +27 +27 душно 1007.1 1006.1 +26.1 3
СВ 1
{2}
20 км 8/4 1200 м
[Cu med, cong Ac und]
+23.1 +14.8 60 +27 +32 душно 1010.6 1009.6 +18.7 10 12.7
СВ 1 20 км 6/4 1000 м
[Cu med, cong Ac und]
+24.4 +17.6 66 +28 +37 душно 1010.4 1009.4
С 1 20 км 8/4 1000 м
[Cu med, cong Ac und]
+23.9 +16.8 64 +27 +34 жарко 1010.8 1009.8
штиль 0
{3}
20 км 8/4 1200 м
[Cu med, cong Ac und]
+23.7 +16.4 64 +27 +36 жарко 1011.4 1010.4
штиль 0 20 км 8/4 1000 м
[Cu med, cong Ac und]
+23.0 +16.7 68 +28 +36 душно 1012.1 1011.1
штиль 0 20 км 9/5 1000 м
[Cu med, cong Ac und]
+23.0 +16.3 66 +28 +33 душно 1012.7 1011.7
штиль 0
{3}
20 км 9/5 1200 м
[Cu med, cong Ac und]
+22.9 +16.5 67 +28 +32 душно 1013.3 1012.3
штиль 0 20 км 9/5 1000 м
[Cu med, cong Ac und]
+23.0 +14.9 60 +27 +30 душно 1013.4 1012.4
штиль 0 20 км 9/5 1000 м
[Cu med, cong Ac und]
+22.7 +12.7 53 +25 +27 комфорт 1012.8 1011.8
штиль 0
{2}
20 км 9/5 1200 м
[Cu med, cong Ac und]
+22.3 +13.7 58 +25 +26 комфорт 1013.1 1012.1
штиль 0 20 км 8/4 1000 м
[Cu med, cong Ac und]
+21.7 +14.3 63 +25 +25 комфорт 1013.4 1012.4
штиль 0 20 км 6/4 1000 м
[Cu med, cong Ac und]
+20.8 +13.8 64 +23 +23 комфорт 1013.3 1012.3
штиль 0
{2}
20 км 6/4 1200 м
[Cu med, cong Ac und]
+19.4 +12.0 62 +20 +20 1013.4 1012.4 +25.0
З 1
{4}
20 км 3/0
[Ac trans]
+23.9 +14.5 56 +27 +37 жарко 1008.7 1007.7 +15.1
З 2 20 км 4/0
[Ac trans]
+23.2 +15.5 62 +27 +39 душно 1009.1 1008.1
З 2 20 км 4/4 1000 м
[Cu med, cong]
+24.5 +15.8 58 +28 +39 душно 1009.0 1008.0
З 3
{6}
20 км 6/4 1200 м
[Cu med, cong Ac und]
+23.9 +16.1 62 +27 +36 жарко 1009.1 1008.1
З 2 20 км 9/5 1000 м
[Cu med, cong Ac und]
+23.0 +17.1 69 +28 +33 душно 1009.0 1008.0
З 1 20 км 9/5 1000 м
[Cu med, cong Ac und]
+22.4 +16.3 68 +27 +31 душно 1009.4 1008.4
З 2
{6}
20 км в посл. час ливневой дождь 9/5 1080 м
[Cu med, cong Ac und]
+21.9 +16.3 71 +26 +29 душно 1010.3 1009.3 0.1
Ю 1 17 км слаб. ливневой дождь 9/5 1000 м
[Cu med, cong Ac und]
+21.3 +17.6 79 +25 +28 комфорт 1010.4 1009.4
штиль 0 20 км в посл. час ливневой дождь 9/5 1000 м
[Cu med, cong Ac und]
+21.3 +16.9 76 +25 +27 комфорт 1010.5 1009.5
ЮЗ 1
{4}
20 км {ливн. дождь} 9/5 1200 м
[Cu med, cong Ac und]
+21.0 +16.4 75 +26 +27 душно 1010.6 1009.6
ЮВ 1 20 км в посл. час ливневой дождь 9/5 1000 м
[Cu med, cong Ac und]
+18.6 +15.2 81 +21 +21 комфорт 1010.7 1009.7
ЮВ 1 20 км 9/5 1000 м
[Cu med, cong Ac und]
+19.1 +14.1 73 +22 +22 комфорт 1011.2 1010.2
штиль 0
{4}
20 км {ливн. дождь} 9/5 1200 м
[Cu med, cong Ac und]
+18.8 +14.3 75 +20 +20 1011.6 1010.6 +25.4 1
штиль 0
{1}
20 км {ливн. дождь} 9/5 1200 м
[Cu med, cong Ac und]
+21.0 +15.8 72 +24 +27 комфорт 1009.0 1008.0 +16.5 0.1 1.1
СВ 1 20 км 9/5 1000 м
[Cu med, cong Ac und]
+20.8 +15.0 69 +25 +30 комфорт 1009.2 1008.2
В 2 20 км 9/5 1000 м
[Cu med, cong Ac und]
+21.8 +16.0 70 +26 +30 душно 1008.3 1007.3
З 1
{3}
20 км 9/5 1200 м
[Cu med, cong Ac und]
+21.5 +16.4 73 +25 +31 комфорт 1009.0 1008.0
СЗ 1 20 км 9/5 1000 м
[Cu med, cong Ac und]
+21.7 +16.9 74 +26 +31 душно 1009.2 1008.2
СВ 1 10 км слаб. ливневой дождь 9/5 600 м
[Cu med, cong Ac und]
+21.3 +17.5 79 +25 +30 комфорт 1009.3 1008.3
В 1
{3}
10 км слаб. ливневой дождь 9/5 900 м
[Cu med, cong Ac und]
+20.0 +18.0 88 +24 +28 комфорт 1009.1 1008.1 1
штиль 0 10 км слаб. ливневой дождь 9/5 600 м
[Cu med, cong Ac und]
+19.5 +18.1 92 +22 +25 комфорт 1009.4 1008.4
штиль 0 10 км слаб. ливневой дождь 9/5 600 м
[Cu med, cong Ac und]
+19.4 +18.2 93 +21 +23 комфорт 1008.7 1007.7
штиль 0
{3}
20 км в посл. час ливневой дождь 9/5 1200 м
[Cu med, cong Ac und]
+19.6 +17.6 88 +22 +23 комфорт 1008.4 1007.4
штиль 0 20 км 6/4 1000 м
[Cu med, cong Ac und]
+19.9 +18.1 89 +23 +23 комфорт 1008.9 1007.9
штиль 0 20 км 8/4 1000 м
[Cu med, cong Ac und]
+19.3 +17.9 92 +21 +21 комфорт 1009.3 1008.3
штиль 0
{3}
20 км {ливн. дождь} 8/5 1200 м
[Cu med, cong Ac und]
+19.1 +17.8 92 +21 +21 комфорт 1009.9 1008.9 +22.7 3
Ю 2
{4}
5000 м ливневой дождь 9/6 900 м
[Cu med, cong Ac und]
+17.3 +16.8 97 +18 +20 1010.0 1009.0 +16.6 28 31.1
З 2 5000 м ливневой дождь 9/6 600 м
[Cu med, cong Ac und]
+17.2 +16.3 94 +17 +20 1010.3 1009.3
З 2 5000 м ливневой дождь 9/6 600 м
[Cu med, cong Ac und]
+17.4 +16.6 95 +18 +22 1010.8 1009.8
З 2
{6}
7000 м слаб. ливневой дождь 9/5 900 м
[Cu med, cong Ac und]
+17.6 +17.0 96 +18 +22 1010.8 1009.8
З 1 5000 м ливневой дождь 9/6 600 м
[Cu med, cong Ac und]
+17.6 +16.9 96 +19 +23 1010.9 1009.9
З 1 5000 м ливневой дождь 9/5 600 м
[Cu med, cong Ac und]
+17.5 +16.6 94 +19 +23 1011.2 1010.2
Ю 1
{6}
20 км в посл. час ливневой дождь 9/5 1050 м
[Cu med, cong Ac und]
+17.7 +16.3 92 +19 +23 1011.4 1010.4 20
ЮЗ 1 20 км 9/5 1000 м
[Cu med, cong Ac und]
+17.8 +16.0 89 +19 +22 1011.5 1010.5
ЮВ 1 20 км 9/5 1000 м
[Cu med, cong Ac und]
+18.3 +15.8 85 +20 +22 1011.8 1010.8
ЮВ 1
{4}
10 км слаб. ливневой дождь 9/5 900 м
[Cu med, cong Ac und]
+17.2 +15.3 89 +19 +19 1011.9 1010.9
ЮВ 1 10 км слаб. ливневой дождь 9/5 600 м
[Cu med, cong Ac und]
+16.4 +15.4 94 +17 +17 1012.4 1011.4
штиль 0 20 км в посл. час ливневой дождь 9/5 1000 м
[Cu med, cong Ac und]
+16.2 +15.5 96 +16 +16 1012.3 1011.3
штиль 0
{4}
20 км {ливн. дождь} 9/5 1080 м
[Cu med, cong Ac und]
+15.9 +15.3 96 +16 +16 1012.4 1011.4 +18.4 24
З 1
{4}
10 км слаб. дождь 9/5 900 м
[Sc diur, vesp Ac und]
+17.8 +15.4 86 +19 +22 1011.1 1010.1 +15.9 0.4 24.5
ЮЗ 1 20 км в посл. час дождь 9/5 1000 м
[Sc diur, vesp Ac und]
+18.8 +15.3 80 +21 +26 комфорт 1011.0 1010.0
З 1 20 км 8/5 1000 м
[Cu med, cong Ac und]
+21.3 +15.6 70 +25 +31 комфорт 1010.5 1009.5
С 1
{4}
20 км {дождь} 8/5 1200 м
[Cu med, cong Ac und]
+21.3 +15.8 71 +25 +31 комфорт 1010.4 1009.4
СВ 1 20 км 6/4 1000 м
[Cu med, cong Ac und]
+23.1 +17.6 71 +28 +39 душно 1010.4 1009.4
В 1 20 км 8/4 1000 м
[Cu med, cong Ac und]
+21.7 +17.2 76 +26 +32 душно 1010.7 1009.7
В 1
{4}
10 км слаб. ливневой дождь 9/5 900 м
[Cu med, cong Ac und]
+21.0 +17.6 81 +26 +30 душно 1011.0 1010.0 0.3
В 2 20 км в посл. час ливневой дождь 9/5 1000 м
[Cu med, cong Ac und]
+21.4 +17.9 80 +26 +28 душно 1010.9 1009.9
В 1 20 км 9/5 1000 м
[Cu med, cong Ac und]
+21.0 +17.3 79 +26 +28 душно 1010.8 1009.8
В 1
{4}
20 км {ливн. дождь} 9/5 1200 м
[Cu med, cong Ac und]
+20.6 +17.7 83 +25 +26 комфорт 1011.0 1010.0
СВ 1 20 км 8/5 1000 м
[Cu med, cong Ac und]
+20.6 +17.4 82 +26 +26 душно 1010.9 1009.9
штиль 0 20 км 8/5 1000 м
[Cu med, cong Ac und]
+19.6 +17.5 88 +22 +22 комфорт 1011.0 1010.0
штиль 0
{4}
20 км {ливн. дождь} 8/5 1200 м
[Cu med, cong Ac und]
+18.6 +17.1 91 +19 +19 1011.1 1010.1 +23.1 0.8
штиль 0
{2}
20 км 1/1 1200 м
[Cu hum]
+22.8 +16.5 68 +27 +41 душно 1010.3 1009.3 +16.6 0.8
С 1 20 км 1/1 1000 м
[Cu hum]
+23.1 +17.8 72 +29 +45 очень
душно
1010.4 1009.4
СЗ 1 20 км 1/1 1000 м
[Cu hum]
+23.3 +17.2 69 +29 +48 душно 1010.4 1009.4
СЗ 2
{3}
20 км 1/1 1200 м
[Cu hum]
+23.6 +17.3 68 +27 +47 жарко 1010.7 1009.7
штиль 0 20 км 4/4 1000 м
[Cu med, cong]
+24.4 +18.1 68 +29 +45 душно 1011.0 1010.0
штиль 0 20 км 5/5 1000 м
[Cu med, cong]
+25.0 +17.7 64 +29 +41 душно 1011.0 1010.0
штиль 0
{3}
20 км 5/5 1200 м
[Cu med, cong]
+25.2 +18.0 64 +30 +39 душно 1011.1 1010.1
штиль 0 20 км 6/4 1000 м
[Cu med, cong Ac und]
+24.2 +17.8 67 +28 +34 душно 1011.1 1010.1
СВ 1 20 км 6/4 1000 м
[Cu med, cong Ac und]
+23.8 +18.0 70 +28 +31 душно 1010.9 1009.9
СВ 2
{3}
20 км 6/4 1200 м
[Cu med, cong Ac und]
+23.8 +18.0 70 +28 +29 душно 1011.2 1010.2
В 1 20 км 8/4 1000 м
[Cu med, cong Ac und]
+23.0 +18.5 76 +29 +29 очень
душно
1011.5 1010.5
СВ 1 20 км 8/4 1000 м
[Cu med, cong Ac und]
+22.7 +18.5 77 +28 +28 душно 1012.0 1011.0
штиль 0
{3}
20 км 8/4 1200 м
[Cu med, cong Ac und]
+22.0 +18.5 81 +27 +27 душно 1012.5 1011.5 +25.2
Местоположение метеостанции Ризе (Турция): широта 41.03 долгота 40.52 высота над уровнем моря 9 м.
В архиве по умолчанию представлена погода в Ризе за последнюю неделю. Архивные данные за месяц целиком и за предыдущие месяцы, начиная с января 2011 года, Вы можете получить, выбрав интересующий диапазон дат из раскрывающегося списка и нажав кнопку "Найти!".
*Определитесь, кто Вы:
Внимание! Время в таблицах - всемирное. Для получения местного времени необходимо прибавить поправку, которая равна 2 ч.
Смотрите также архив погоды в соседних городах и на ближайших метеорологических станциях:
Партнеры нашего сайта:      
Пояснения к столбцам:
  • Ветер - указаны скорость ветра в м/с - средняя за 10 мин, порывы в срок и между сроками (в фигурных скобках) и направление, откуда дует ветер: С - северный,
  • СВ - северо-восточный, В - восточный, ЮВ - юго-восточный, Ю - южный, ЮЗ - юго-западный, З - западный, СЗ - северо-западный.
  • Видимость - горизонтальная дальность видимости в метрах или километрах. При видимости от 1 до 10 км при отсутствии осадков обычно наблюдается дымка, при ухудшении видимости до 1 км и менее - туман. В сухую погоду видимость может ухудшаться дымом, пылью или мглою.
  • Явления - указаны атмосферные явления, наблюдавшиеся в срок или в последний час перед сроком; фигурными скобками обозначены явления, наблюдавшиеся между сроками (за 1-3 часа до срока); квадратными скобками обозначены град или гололедные отложения с указанием их диаметра в мм.
  • Облачность - указаны через наклонную черту общая и нижняя облачность в баллах и высота нижней границы облаков в метрах; квадратными скобками обозначены формы облаков: Ci - перистые, Cs - перисто-слоистые, Cc - перисто-кучевые, Ac - высококучевые, As - высокослоистые, Sc - слоисто-кучевые, Ns - слоисто-дождевые, Cu - кучевые, Cb - кучево-дождевые. Подробнее классификацию облаков см. в Атласе облаков (PDF).
  • T - Температура воздуха - температура, измеренная на высоте 2 м над землей.
  • Td - Температура точки росы - температура, при понижении до которой содержащийся в воздухе водяной пар достигнет насыщения.
  • f - Относительная влажность воздуха - влажноcть воздуха, измеренная на высоте 2 м над землей.
  • Te - Эффективная температура - температура, которую ощущает одетый по сезону человек в тени. Характеристика душности погоды. При расчете учитывается влияние влажности воздуха и скорости ветра на теплоощущения человека.
  • Tes - Эффективная температура на солнце - температура, которую ощущает человек, с поправкой на солнечный нагрев. Характеристика знойности погоды. Зависит от высоты солнца над горизонтом, облачности и скорости ветра. Ночью, в пасмурную погоду, а также при ветре 12 м/с и более поправка равна нулю.
  • P - Атмосферное давление - приведенное к уровню моря атмосферное давление.
  • Po - Атмосферное давление - измеренное на уровне метеостанции атмосферное давление.
  • Tmin - Минимальная температура - минимум температуры воздуха на высоте 2 м над землей.
  • Tmax - Максимальная температура - максимум температуры воздуха на высоте 2 м над землей.
  • R - Количество осадков - Количество выпавших осадков за период времени, мм. При наведении курсора мыши на число - период времени, за который выпало указанное количество осадков.
  • R24 - Количество осадков - Количество выпавших осадков за 24 часа, мм.
  • S - Снежный покров - Высота снежного покрова, см. При наведении курсора мыши на число - состояние снежного покрова и степень покрытия местности в баллах.